This is the latest recevied weather packets stored in our database for station/object KC9DRE. If no packets are shown the sender has not sent any weather packets the latest 10 day(s).
| Time | Temp. | Humidity | Pressure | Rain* | Wind** | Luminosity | Snow |
|---|---|---|---|---|---|---|---|
| 1787930063 | 26.67° C | 69% | 1020.6 hPa | 0 mm | - | 612 W/m² | - |
| 1787929761 | 26.67° C | 67% | 1020.5 hPa | 0 mm | - | 599 W/m² | - |
| 1787929456 | 26.67° C | 68% | 1020.2 hPa | 0 mm | - | 587 W/m² | - |
| 1787929154 | 27.22° C | 69% | 1020.6 hPa | 0 mm | - | 573 W/m² | - |
| 1787928849 | 27.78° C | 66% | 1020.5 hPa | 0 mm | - | 545 W/m² | - |
| 1787928549 | 27.22° C | 71% | 1020.5 hPa | 0 mm | - | 545 W/m² | - |
| 1787928248 | 26.67° C | 69% | 1020.3 hPa | 0 mm | - | 522 W/m² | - |
| 1787927947 | 26.67° C | 70% | 1020.2 hPa | 0 mm | - | 515 W/m² | - |
| 1787927641 | 26.67° C | 71% | 1020.3 hPa | 0 mm | - | 497 W/m² | - |
| 1787927341 | 26.11° C | 75% | 1020.3 hPa | 0 mm | - | 481 W/m² | - |
| 1787927037 | 26.11° C | 73% | 1020.3 hPa | 0 mm | - | 467 W/m² | - |
| 1787926732 | 26.11° C | 74% | 1020.2 hPa | 0 mm | - | 451 W/m² | - |
| 1787926430 | 25.56° C | 74% | 1020.3 hPa | 0 mm | - | 440 W/m² | - |
| 1787926125 | 25.56° C | 74% | 1020.3 hPa | 0 mm | - | 426 W/m² | - |
| 1787925824 | 25.56° C | 74% | 1020.3 hPa | 0 mm | - | 411 W/m² | - |
| 1787925524 | 25.56° C | 74% | 1020.3 hPa | 0 mm | - | 393 W/m² | - |
| 1787925219 | 25° C | 76% | 1020.2 hPa | 0 mm | - | 402 W/m² | - |
| 1787924918 | 25° C | 75% | 1020.1 hPa | 0 mm | - | 392 W/m² | - |
| 1787924618 | 25° C | 77% | 1019.9 hPa | 0 mm | - | 387 W/m² | - |
| 1787924313 | 24.44° C | 77% | 1020.2 hPa | 0 mm | - | 387 W/m² | - |
| 1787924008 | 24.44° C | 79% | 1019.9 hPa | 0 mm | - | 385 W/m² | - |
| 1787923703 | 23.89° C | 79% | 1020.1 hPa | 0 mm | - | 388 W/m² | - |
| 1787923398 | 23.33° C | 83% | 1020 hPa | 0 mm | - | 91 W/m² | - |
| 1787923093 | 22.78° C | 86% | 1020.1 hPa | 0 mm | - | 430 W/m² | - |
| 1787922788 | 22.22° C | 86% | 1020 hPa | 0 mm | - | 454 W/m² | - |
* Rain latest hour (hover to see other rain measurements)
** Current wind speed in m/s (hover to see current wind gust speed)